Vertical_Velocity
1 0 0 -0 -0 0 1 -0 3 -0 -2 -2 -2 -1 -0 -2 -2 -2 -2 -1 0 2
-1 -1 1 1 1 2 0 2 1 -1 0 1 -1 1 -1 -2 -2 -2 -2 1 2 1
-1 1 0 0 1 1 0 -0 -1 1 -1 -1 -3 -2 -1 -1 -1 -1 -2 -3 -4 -1
0 -1 -1 -1 0 -0 -1 0 1 1 2 2 2 1 -0 -1 -1 -2 -1 0 0 1
-0 -1 -2 0 1 0 0 -1 -1 -1 -1 -2 -2 -2 -1 -0 2 1 1 1 1 -1
-3 -1 1 3 2 1 0 0 -0 -1 -1 -0 1 2 3 2 -1 -3 -2 -0 2 4
-1 -1 -0 -0 -1 -1 1 0 1 1 1 0 1 0 -1 -2 -0 1 -0 0 1 1
-1 -1 -2 -3 -2 -1 -0 1 1 2 2 1 0 -2 -1 -0 1 1 0 0 -3 -2
-3 -3 -3 -2 -1 -1 0 0 -0 0 -1 -1 -0 -0 -0 -1 -1 -0 -1 0 -0 1
-1 -0 -0 -0 -1 0 -0 -1 -1 -1 -1 -1 -0 0 1 1 -2 -2 -0 -1 1 -1
-2 -3 -3 -0 1 2 1 0 0 1 1 -1 -0 0 -1 -1 -1 -1 -1 -0 1 -1
-2 -1 -0 -0 -2 -3 -4 -2 -0 -1 0 0 -2 2 2 0 -1 -2 -2 1 1 1
1 1 2 1 -0 -0 -0 -3 -1 -1 -2 -1 -4 0 1 -1 -3 -6 -5 -3 -3 -2
0 -1 1 -0 -1 -1 -3 -2 -2 -3 -4 -3 -2 -4 1 5 2 0 -0 -1 -4 -0
Height
1484 1481 1480 1478 1477 1475 1474 1473 1471 1470 1470 1468 1467 1466 1465 1464 1463 1462 1461 1460 1461 1460
1483 1480 1477 1475 1474 1472 1471 1470 1468 1467 1467 1465 1464 1463 1462 1461 1460 1459 1459 1458 1457 1457
1481 1479 1476 1474 1472 1470 1469 1467 1466 1464 1463 1462 1461 1460 1459 1458 1457 1456 1455 1455 1455 1454
1480 1477 1475 1473 1470 1468 1467 1465 1464 1462 1461 1459 1458 1457 1456 1455 1454 1453 1452 1451 1450 1449
1478 1476 1473 1471 1468 1466 1464 1462 1461 1459 1458 1456 1455 1454 1453 1452 1451 1450 1449 1448 1446 1445
1476 1474 1471 1469 1466 1463 1461 1460 1458 1456 1454 1453 1452 1451 1449 1448 1447 1446 1445 1444 1442 1441
1473 1471 1469 1466 1464 1462 1459 1457 1455 1453 1451 1450 1448 1447 1446 1445 1443 1442 1441 1440 1439 1437
1469 1467 1465 1463 1461 1459 1457 1454 1452 1450 1448 1446 1444 1443 1442 1441 1439 1437 1435 1434 1434 1433
1464 1462 1461 1460 1458 1456 1454 1451 1449 1447 1445 1443 1441 1439 1438 1436 1435 1433 1432 1430 1429 1428
1460 1458 1457 1455 1454 1452 1450 1448 1446 1444 1442 1439 1438 1436 1434 1432 1431 1430 1428 1427 1425 1423
1454 1453 1453 1452 1450 1448 1446 1443 1441 1440 1437 1435 1433 1431 1429 1427 1426 1425 1423 1422 1420 1418
1450 1449 1447 1446 1444 1442 1441 1439 1436 1434 1432 1430 1429 1427 1425 1422 1420 1419 1419 1417 1415 1413
1444 1443 1441 1440 1439 1438 1435 1433 1431 1428 1426 1425 1423 1421 1419 1417 1415 1413 1412 1411 1409 1407
1439 1439 1438 1436 1434 1430 1430 1427 1425 1423 1421 1419 1416 1414 1413 1411 1408 1406 1404 1402 1401 1400